Location: Fort Worth, Tx
(32.7431°N, 97.3695°W)
Time: 21:03:48
(UTC-04:00)

Vanguard 1 Rocket - Pass Details

Date: 18 September 2024
Orbit: 650 x 4218 km, 34.3° (Epoch: 11 October)

Event Time Altitude Azimuth Distance (km) Brightness Sun altitude
Exits shadow 05:05:46 68° 201° (SSW) 2,570 9.2 -38.6°
Maximum altitude 05:07:43 75° 155° (SSE) 2,662 9.4 -38.2°
Drops below altitude 10° 05:29:32 10° 75° (ENE) 7,069 12.7 -34.3°
Sets 05:35:46 0° 74° (ENE) 8,344 13.3 -33.1°
